[[{"header":{"parameterUnit":"m.s-1","parameterCategory":1,"la1":30.2991,"la2":30.254,"lo1":-89.0895,"lo2":-89.0444,"dy":0.0017,"dx":0.0017,"nx":28,"ny":28,"refTime":"2023-04-23T21:00:00:Z","depth":0,"parameterNumber":2,"parameterNumberName":"U-component_of_WINDS"},"data":[0,0,0,0,0,0,0,0,0,0,0,0,0,0,0,0,0,0,0,0,0,0,0,0,0,0,0,0,0,0,0,0,0,0,0,0,0,0,0,0,0,0,0,0,0,0,0,0,0,0,0,0,0,0,0,0,0,0,-2.6381,-2.6381,0,-2.6398,-2.6399,-2.6399,-2.6281,-2.6277,-2.6274,-2.6271,-2.6295,-2.6298,-2.6302,0,0,0,0,0,0,0,0,0,0,0,0,0,-2.6255,-2.6257,-2.6381,-2.6381,-2.6382,-2.6398,-2.6399,-2.6399,-2.6281,-2.6277,-2.6273,-2.6269,-2.6293,-2.6298,-2.6302,0,0,0,0,0,0,0,0,0,0,0,0,0,-2.6295,-2.6258,-2.6381,-2.6325,-2.632,-2.6398,-2.6399,-2.6399,-2.6282,-2.6277,-2.6272,-2.6267,-2.6292,-2.6297,-2.6303,-2.6438,0,0,-2.632,-2.6323,0,0,0,0,0,0,0,0,-2.6293,-2.6299,-2.6333,-2.6329,-2.6324,-2.6332,-2.6362,-2.6412,-2.6283,-2.6297,-2.6271,-2.6265,-2.6312,-2.6315,-2.633,-2.6439,-2.644,-2.6321,-2.6324,-2.6326,-2.6328,0,0,0,0,0,0,0,-2.629,-2.6298,-2.6388,-2.6334,-2.6328,-2.6301,-2.6301,-2.6371,-2.6332,-2.6295,-2.6287,-2.629,-2.6308,-2.6325,-2.6329,-2.644,-2.632,-2.6325,-2.6329,-2.6331,-2.6664,-2.667,0,0,0,0,0,0,-2.6294,-2.6297,-2.6388,-2.6389,-2.6295,-2.6308,-2.6308,-2.6335,-2.6331,-2.6326,-2.6294,-2.6284,-2.6317,-2.6323,-2.633,-2.6488,-2.6326,-2.6332,-2.6335,-2.6659,-2.6666,-2.6671,0,0,0,0,0,0,-2.6291,-2.6303,-2.6387,-2.634,-2.6349,-2.6315,-2.6346,-2.6338,-2.6354,-2.633,-2.6323,-2.6318,-2.6314,-2.6322,-2.6412,-2.6487,-2.6334,-2.6339,-2.6652,-2.6661,-2.6669,-2.6806,0,0,0,0,0,0,-2.6288,-2.6303,-2.6352,-2.6342,-2.6352,-2.6467,-2.6351,-2.6342,-2.6363,-2.635,-2.635,-2.6346,-2.631,-2.6404,-2.6418,-2.6492,-2.6344,-2.6645,-2.6656,-2.6666,-2.6795,-2.6818,-2.6838,0,0,0,0,0,-2.6284,-2.6391,-2.6355,-2.6366,-2.6412,-2.6471,-2.6477,-2.6432,-2.6369,-2.642,-2.6405,-2.6346,-2.6478,-2.6414,-2.6429,-2.6506,-2.664,-2.6653,-2.6665,-2.6785,-2.6814,-2.6838,0,0,0,0,0,0,-2.6411,-2.6388,-2.6348,-2.6454,-2.6466,-2.6451,-2.6512,-2.6464,-2.6494,-2.6481,-2.6427,-2.6428,-2.6528,-2.6526,-2.6457,-2.6638,-2.6548,-2.6564,-2.6635,-2.6662,-2.6683,-2.6681,-2.6348,0,0,0,0,0,-2.6451,-2.6499,-2.6478,-2.6574,-2.6581,-2.6547,-2.6571,-2.6536,-2.6546,-2.655,-2.6542,-2.6557,-2.6601,-2.6632,-2.6671,-2.6795,-2.6795,-2.6856,-2.6878,-2.6896,-2.691,-2.6977,-2.7004,-2.6712,-2.6712,-2.6712,0,0,-2.6535,-2.6529,-2.6562,-2.6599,-2.6603,-2.6657,-2.6551,-2.6612,-2.6651,-2.656,-2.6644,-2.664,-2.6652,-2.676,-2.6807,-2.6762,-2.6991,-2.6911,-2.6926,-2.693,-2.6992,-2.702,-2.7045,-2.672,-2.6719,-2.6717,0,0,-2.6714,-2.6714,-2.6794,-2.6801,-2.6809,-2.6786,-2.6806,-2.6799,-2.6792,-2.6876,-2.6809,-2.6857,-2.6935,-2.6947,-2.6963,-2.7152,-2.7099,-2.7167,-2.7279,-2.7346,-2.7369,-2.7389,-2.7457,-2.7482,-2.7181,-2.7181,-2.7181,0,-2.6817,-2.6892,-2.6842,-2.6907,-2.6926,-2.6846,-2.6928,-2.6938,-2.696,-2.6977,-2.6925,-2.7022,-2.7025,-2.7135,-2.7182,-2.7198,-2.722,-2.7165,-2.7369,-2.7389,-2.7407,-2.7471,-2.7497,-2.7189,-2.7188,-2.7188,-2.7187,0,-2.702,-2.7074,-2.7138,-2.7159,-2.7186,-2.726,-2.7223,-2.7257,-2.7221,-2.7205,-2.7292,-2.7293,-2.7333,-2.7357,-2.7322,-2.7464,-2.7435,-2.7378,-2.7286,-2.7444,-2.7503,-2.7527,-2.7201,-2.7198,-2.7196,-2.7194,0,0,-2.7276,-2.727,-2.7295,-2.7304,-2.7309,-2.7351,-2.7423,-2.746,-2.7491,-2.751,-2.757,-2.7639,-2.7587,-2.7606,-2.7573,-2.7631,-2.7782,-2.7566,-2.7566,-2.7606,-2.7939,-2.7982,-2.8011,-2.7747,-2.7752,-2.7755,-2.7938,0,-2.7451,-2.757,-2.7529,-2.7651,-2.7702,-2.7628,-2.7691,-2.7703,-2.769,-2.7734,-2.7721,-2.7771,-2.7697,-2.7708,-2.7763,-2.7752,-2.7848,-2.7738,-2.7805,-2.7808,-2.7802,-2.8042,-2.8086,-2.8258,-2.7961,-2.7965,-2.7968,0,-2.767,-2.7696,-2.7824,-2.7822,-2.7841,-2.7898,-2.793,-2.7972,-2.7985,-2.7972,-2.7995,-2.7951,-2.8024,-2.7934,-2.8036,-2.7963,-2.7988,-2.7988,-2.7994,-2.7997,-2.7896,-2.8052,-2.8312,-2.8338,-2.8004,-2.8001,-2.7998,0,-2.7844,-2.7913,-2.7998,-2.8008,-2.8008,-2.805,-2.8053,-2.8061,-2.8087,-2.8116,-2.8133,-2.8171,-2.8192,-2.8225,-2.8193,-2.813,-2.8301,-2.8208,-2.8294,-2.8295,-2.8332,-2.833,-2.86,-2.835,-2.835,-2.8349,-2.8349,0,-2.8043,-2.8124,-2.8076,-2.8129,-2.8219,-2.8172,-2.8263,-2.8258,-2.8266,-2.8319,-2.8259,-2.831,-2.8266,-2.8314,-2.8291,-2.838,-2.839,-2.8383,-2.8376,-2.8388,-2.8389,-2.8403,-2.839,-2.8356,-2.8355,-2.8353,-2.8352,0,-2.8252,-2.8223,-2.8311,-2.8304,-2.8305,-2.8371,-2.8367,-2.8417,-2.8401,-2.8469,-2.8482,-2.8459,-2.8512,-2.8485,-2.8541,-2.8525,-2.8641,-2.8618,-2.8636,-2.8629,-2.8717,-2.8709,-2.9005,-2.9042,-2.8769,-2.8772,-2.8774,0,-2.838,-2.844,-2.844,-2.847,-2.8476,-2.8525,-2.8551,-2.851,-2.854,-2.8561,-2.861,-2.8658,-2.8694,-2.8785,-2.8774,-2.8818,-2.8796,-2.8896,-2.8802,-2.8813,-2.8797,-2.8794,-2.88,-2.8915,-2.8918,-2.8921,-2.8923,0,-2.861,-2.8594,-2.8632,-2.8667,-2.87,-2.8726,-2.8747,-2.8776,-2.8735,-2.8773,-2.8826,-2.8854,-2.8912,-2.8962,-2.9001,-2.9006,-2.8959,-2.8953,-2.8975,-2.8988,-2.8996,-2.8993,-2.8687,-2.8946,-2.8944,-2.8942,-2.8941,-2.894,-2.8782,-2.8833,-2.8841,-2.8887,-2.8899,-2.8921,-2.8968,-2.8959,-2.9002,-2.9044,-2.9018,-2.9082,-2.9097,-2.9144,-2.9156,-2.9208,-2.9168,-2.92,-2.9208,-2.9216,-2.9228,-2.8989,-2.9215,-2.9214,-2.9213,-2.9213,-2.9212,0,-2.9009,-2.9012,-2.9055,-2.9086,-2.9123,-2.9075,-2.9097,-2.9132,-2.9188,-2.9205,-2.9242,-2.9306,-2.9355,-2.9349,-2.9395,-2.9437,-2.9417,-2.9451,-2.9447,-2.9449,-2.9261,-2.9237,-2.9466,-2.9466,-2.9466,-2.9466,-2.9466,-2.9466,-2.9132,-2.9216,-2.9201,-2.9292,-2.9294,-2.9354,-2.9372,-2.9393,-2.9406,-2.9479,-2.9519,-2.9515,-2.9524,-2.957,-2.9615,-2.9612,-2.9632,-2.9674,-2.9664,-2.9487,-2.9462,-2.9438,-2.9415,-2.9678,-2.9679,-2.9847,-2.9849,-2.985]},{"header":{"parameterUnit":"m.s-1","parameterCategory":1,"la1":30.2991,"la2":30.254,"lo1":-89.0895,"lo2":-89.0444,"dy":0.0017,"dx":0.0017,"nx":28,"ny":28,"refTime":"2023-04-23T21:00:00:Z","depth":0,"parameterNumber":3,"parameterNumberName":"V-component_of_WINDS"},"data":[0,0,0,0,0,0,0,0,0,0,0,0,0,0,0,0,0,0,0,0,0,0,0,0,0,0,0,0,0,0,0,0,0,0,0,0,0,0,0,0,0,0,0,0,0,0,0,0,0,0,0,0,0,0,0,0,0,0,1.7756,1.7757,0,1.7783,1.7784,1.7784,1.7849,1.7851,1.7852,1.7853,1.7873,1.7872,1.7872,0,0,0,0,0,0,0,0,0,0,0,0,0,1.7756,1.7755,1.7756,1.7757,1.7757,1.7783,1.7784,1.7784,1.7849,1.7851,1.7852,1.7854,1.7873,1.7872,1.7871,0,0,0,0,0,0,0,0,0,0,0,0,0,1.7766,1.7755,1.7756,1.7793,1.7796,1.7783,1.7784,1.7784,1.7849,1.7851,1.7853,1.7855,1.7874,1.7872,1.7871,1.7822,0,0,1.7868,1.7867,0,0,0,0,0,0,0,0,1.7766,1.7766,1.7787,1.779,1.7794,1.7815,1.7791,1.7797,1.7848,1.7828,1.7853,1.7856,1.7852,1.7852,1.7853,1.7823,1.7824,1.7868,1.7867,1.7867,1.7866,0,0,0,0,0,0,0,1.7765,1.7765,1.7767,1.7787,1.7792,1.7806,1.781,1.7792,1.7828,1.783,1.7835,1.7838,1.7854,1.7854,1.7854,1.7824,1.7868,1.7867,1.7866,1.7866,1.7757,1.7755,0,0,0,0,0,0,1.776,1.7764,1.7766,1.7768,1.7785,1.7804,1.7809,1.7806,1.7828,1.7834,1.7836,1.7841,1.7855,1.7855,1.7854,1.7799,1.7867,1.7865,1.7865,1.7759,1.7757,1.7754,0,0,0,0,0,0,1.7759,1.7759,1.7765,1.7767,1.7769,1.7802,1.7799,1.7806,1.7805,1.7833,1.7839,1.783,1.7856,1.7856,1.7831,1.78,1.7865,1.7864,1.7762,1.7758,1.7755,1.7686,0,0,0,0,0,0,1.7759,1.7759,1.7742,1.7767,1.7769,1.7742,1.7797,1.7805,1.7804,1.7811,1.7828,1.7833,1.7858,1.7832,1.7829,1.78,1.7863,1.7765,1.776,1.7756,1.7691,1.7681,1.7672,0,0,0,0,0,1.7759,1.7719,1.774,1.774,1.7748,1.774,1.7741,1.7773,1.7801,1.7784,1.7802,1.7832,1.7805,1.7829,1.7827,1.7796,1.7767,1.7762,1.7757,1.7695,1.7683,1.7672,0,0,0,0,0,0,1.7686,1.7723,1.7747,1.7714,1.7724,1.7751,1.7729,1.7758,1.7758,1.7763,1.7801,1.7804,1.7773,1.7782,1.7809,1.775,1.7791,1.7785,1.7745,1.7733,1.7724,1.7721,1.7862,0,0,0,0,0,1.7667,1.7659,1.7691,1.7659,1.7663,1.7695,1.7693,1.7717,1.7727,1.7731,1.7747,1.7753,1.7747,1.7741,1.7736,1.7694,1.7698,1.7672,1.7662,1.7654,1.7648,1.7626,1.7615,1.7738,1.7738,1.7738,0,0,1.7626,1.7645,1.7637,1.7645,1.7655,1.7644,1.7698,1.7684,1.7676,1.7728,1.7705,1.7717,1.7727,1.7694,1.768,1.77,1.7615,1.7648,1.7641,1.7639,1.762,1.7608,1.7598,1.7735,1.7735,1.7736,0,0,1.7545,1.756,1.7535,1.7545,1.7561,1.7584,1.7578,1.7601,1.7612,1.7591,1.763,1.762,1.7607,1.7613,1.7614,1.7539,1.7567,1.7537,1.7485,1.7464,1.7454,1.7445,1.7417,1.7407,1.7531,1.7531,1.7531,0,1.749,1.7478,1.7518,1.7502,1.7504,1.7555,1.7529,1.7536,1.7548,1.7548,1.7572,1.7558,1.7569,1.7537,1.7519,1.7519,1.7512,1.7533,1.7453,1.7444,1.7437,1.7411,1.74,1.7527,1.7527,1.7528,1.7528,0,1.741,1.7401,1.7379,1.7393,1.7393,1.7372,1.7407,1.7402,1.7427,1.7446,1.7424,1.7439,1.7438,1.7433,1.7456,1.7404,1.7417,1.7446,1.7487,1.7421,1.7396,1.7387,1.7521,1.7523,1.7524,1.7525,0,0,1.728,1.732,1.7311,1.7318,1.7341,1.7334,1.7316,1.7318,1.7312,1.732,1.7304,1.7294,1.7322,1.7324,1.7348,1.733,1.7268,1.7361,1.7362,1.7342,1.7211,1.7187,1.7175,1.7288,1.7287,1.7285,1.721,0,1.7204,1.7176,1.7213,1.7176,1.7168,1.7217,1.7201,1.7213,1.7231,1.7225,1.7245,1.7236,1.7275,1.7276,1.7261,1.7279,1.7242,1.7285,1.7271,1.727,1.7265,1.7162,1.7137,1.7065,1.7201,1.7199,1.7198,0,1.7109,1.7116,1.7079,1.7106,1.7104,1.7089,1.7095,1.709,1.7103,1.7118,1.7121,1.7152,1.7135,1.7177,1.7152,1.7181,1.7178,1.7187,1.7185,1.7182,1.7228,1.7155,1.7043,1.7031,1.7184,1.7185,1.7186,0,1.7016,1.7016,1.6995,1.7,1.7031,1.7019,1.7031,1.7048,1.7047,1.7052,1.7052,1.7053,1.7053,1.7053,1.7083,1.7111,1.7054,1.7099,1.7063,1.7062,1.7046,1.7046,1.6929,1.7048,1.7048,1.7049,1.7049,0,1.6925,1.69,1.6954,1.694,1.6914,1.6956,1.6928,1.6945,1.696,1.6949,1.6992,1.6981,1.7022,1.7015,1.7038,1.7014,1.7014,1.7023,1.7029,1.7018,1.7017,1.7014,1.7019,1.7046,1.7046,1.7047,1.7047,0,1.6815,1.6851,1.683,1.6863,1.6871,1.685,1.6877,1.6865,1.6888,1.6874,1.6873,1.6907,1.6901,1.6932,1.693,1.6946,1.6909,1.6924,1.6904,1.6908,1.687,1.6873,1.6746,1.6731,1.6861,1.686,1.6859,0,1.6754,1.6736,1.6768,1.6766,1.6777,1.6771,1.6772,1.6814,1.6812,1.6828,1.6814,1.6812,1.6813,1.68,1.6823,1.6823,1.6837,1.6793,1.6837,1.6826,1.6834,1.6834,1.6832,1.6782,1.6781,1.6779,1.6778,0,1.664,1.6659,1.666,1.6667,1.6667,1.6674,1.6684,1.6678,1.6723,1.6719,1.6715,1.6716,1.6716,1.6713,1.6718,1.6728,1.6759,1.6765,1.6757,1.6743,1.6732,1.6736,1.6877,1.6767,1.6768,1.6769,1.677,1.677,1.6551,1.6538,1.6559,1.6559,1.6572,1.658,1.6571,1.6594,1.6592,1.6597,1.6622,1.6613,1.6628,1.6638,1.6646,1.6639,1.6659,1.6647,1.6644,1.6639,1.6632,1.6736,1.664,1.664,1.664,1.6641,1.6641,0,1.6438,1.6455,1.6455,1.6468,1.6468,1.6502,1.6515,1.6511,1.6504,1.6518,1.6518,1.6514,1.6512,1.6536,1.6537,1.6526,1.6541,1.6525,1.6525,1.6526,1.6614,1.6621,1.6513,1.6513,1.6513,1.6513,1.6513,1.6513,1.6379,1.6359,1.6381,1.6367,1.6384,1.6378,1.6383,1.639,1.6401,1.6395,1.6395,1.6413,1.643,1.6433,1.6432,1.644,1.6437,1.6415,1.6427,1.6508,1.652,1.6532,1.6538,1.6415,1.6415,1.634,1.6339,1.6338]}]]